Terug naar catalogus

STARLINK-5403

ActiefCommunicatieVLEO
NORAD 54862·PAYLOAD·🇺🇸 United States

Gelanceerd Dec 28, 2022 vanaf Cape Canaveral Space Force Station

Loading…

Volgende Passages (komende 24 uur)

TLE

VersSource: CelesTrak SupGP

Epoch: Sep 14, 2026, 20:59 UTC

1 54862C 22177AU  26257.87479167 -.00033505  00000+0 -12138-2 0  2576
2 54862  42.9996 133.1406 0001239 258.5464 133.7469 15.27587919    11

Volg STARLINK-5403 in realtime met AllMySat

Download on the App Store